Randolph AFB, TX

3:17 AM CDT on April 25, 2017 (GMT -0500)
Randolph Air Force Base

Weather History for KRND - November, 2013

Change the Weather History Date:

Friday, November 15, 2013

  Actual Average Record
Temperature  
Mean Temperature 62 °F -  
Max Temperature 76 °F 68 °F 85 °F (2016)
Min Temperature 49 °F 50 °F 32 °F (1997)
Degree Days  
Heating Degree Days 2    
Growing Degree Days 12 (Base 50)    
Moisture  
Dew Point 51 °F    
Average Humidity 72    
Maximum Humidity 89    
Minimum Humidity 46    
Precipitation  
Precipitation 0.00 in - - ()
Sea Level Pressure  
Sea Level Pressure 29.97 in    
Wind  
Wind Speed 4 mph (SSW)    
Max Wind Speed 13 mph    
Max Gust Speed -    
Visibility 10 miles    
Events      
Averages and records for this station are not official NWS values.
T = Trace of Precipitation, MM = Missing Value Source: NWS Daily Summary

Daily Weather History Graph

Daily Weather History Graph

Search for Another Location

Airport or City:

Trip Planner

Search our weather history database for the weather conditions in past years. The results will help you decide how hot, cold, wet, or windy it might be!

Date:

Astronomy

Nov. 15, 2013 Rise Set
Actual Time 6:57 AM CST 5:37 PM CST
Civil Twilight 6:32 AM CST 6:02 PM CST
Nautical Twilight 6:03 AM CST 6:31 PM CST
Astronomical Twilight 5:35 AM CST 6:59 PM CST
Moon 4:29 PM CST (11/15) 5:03 AM CST (11/15)
Length of Visible Light 11h 30m
Length of Day
10h 40m
Waxing Gibbous, 96% of the Moon is Illuminated
Nov 15
Waxing Gibbous
Nov 17
Full
Nov 25
Last Quarter
Dec 2
New
Dec 9
First Quarter

Hourly Weather History & Observations

Time (CST) Temp. Dew Point Humidity Pressure Visibility Wind Dir Wind Speed Gust Speed Precip Events Conditions
12:58 AM 53.2 °F 47.1 °F 80% 30.03 in 10.0 mi SSE 3.5 mph - N/A   Scattered Clouds
1:48 AM 53.6 °F 48.2 °F 82% 30.04 in 10.0 mi NNW 5.8 mph - N/A   Overcast
1:58 AM 54.1 °F 48.0 °F 80% 30.03 in 10.0 mi NNW 2.3 mph - N/A   Mostly Cloudy
2:13 AM 53.6 °F 48.2 °F 82% 30.03 in 10.0 mi NNW 3.5 mph - N/A   Mostly Cloudy
2:58 AM 54.0 °F 48.0 °F 80% 30.03 in 10.0 mi NNW 2.3 mph - N/A   Scattered Clouds
3:13 AM 55.4 °F 48.2 °F 77% 30.03 in 10.0 mi NW 2.3 mph - N/A   Mostly Cloudy
3:33 AM 53.6 °F 48.2 °F 82% 30.01 in 10.0 mi ESE 2.3 mph - N/A   Mostly Cloudy
3:38 AM 53.6 °F 48.2 °F 82% 30.01 in 10.0 mi SE 2.3 mph - N/A   Scattered Clouds
3:58 AM 51.8 °F 47.5 °F 85% 30.01 in 10.0 mi SE 2.3 mph - N/A   Clear
4:58 AM 50.4 °F 45.3 °F 83% 30.00 in 10.0 mi Calm Calm - N/A   Clear
5:58 AM 49.3 °F 45.9 °F 88% 30.00 in 10.0 mi NW 2.3 mph - N/A   Clear
6:58 AM 49.5 °F 46.4 °F 89% 30.01 in 10.0 mi NW 2.3 mph - N/A   Clear
7:58 AM 51.6 °F 48.4 °F 89% 30.02 in 10.0 mi NNW 2.3 mph - N/A   Clear
8:58 AM 59.2 °F 51.1 °F 74% 30.01 in 10.0 mi North 1.2 mph - N/A   Clear
9:58 AM 64.2 °F 53.4 °F 68% 30.02 in 10.0 mi Variable 2.3 mph - N/A   Clear
10:58 AM 70.0 °F 54.3 °F 57% 30.01 in 10.0 mi SW 12.7 mph - N/A   Clear
11:58 AM 72.5 °F 54.3 °F 53% 29.98 in 10.0 mi SW 9.2 mph - N/A   Clear
12:58 PM 75.0 °F 54.7 °F 49% 29.94 in 10.0 mi SSW 10.4 mph - N/A   Clear
1:58 PM 76.5 °F 54.3 °F 46% 29.91 in 10.0 mi Variable 5.8 mph - N/A   Clear
2:58 PM 76.8 °F 54.5 °F 46% 29.89 in 10.0 mi South 8.1 mph - N/A   Clear
3:58 PM 76.5 °F 55.0 °F 47% 29.88 in 10.0 mi South 9.2 mph - N/A   Clear
4:58 PM 74.3 °F 55.2 °F 51% 29.88 in 10.0 mi South 8.1 mph - 0.00 in   Clear
5:58 PM 65.1 °F 54.0 °F 67% 29.88 in 10.0 mi SSE 4.6 mph - N/A   Clear
6:58 PM 65.5 °F 54.0 °F 66% 29.89 in 10.0 mi SE 3.5 mph - N/A   Clear
7:58 PM 62.8 °F 52.7 °F 70% 29.91 in 10.0 mi South 6.9 mph - N/A   Clear
8:58 PM 60.8 °F 53.4 °F 77% 29.92 in 10.0 mi South 8.1 mph - N/A   Clear
9:58 PM 60.4 °F 53.2 °F 77% 29.92 in 10.0 mi SSE 8.1 mph - N/A   Clear
10:58 PM 60.8 °F 56.1 °F 85% 29.93 in 10.0 mi South 4.6 mph - N/A   Clear
11:58 PM 62.2 °F 58.5 °F 87% 29.92 in 10.0 mi South 4.6 mph - N/A   Clear